Regional Weather Roundup
Issued by NWS Albany, NY

Home | Current Version | Previous Version | Graphics & Text | Print | Product List | Glossary Off
Versions: 1 2 3 4 5 6 7 8 9 10 11 12 13 14 15 16 17 18 19 20 21 22 23 24 25 26 27 28

000
ASUS41 KALY 300710
RWRALY

NEW YORK STATE HOURLY WEATHER ROUNDUP
NATIONAL WEATHER SERVICE ALBANY NY
300 AM EDT SAT JUL 30 2016

NOTE: "FAIR" INDICATES FEW OR NO CLOUDS BELOW 12,000 FEET WITH NO
SIGNIFICANT WEATHER AND/OR NO OBSTRUCTIONS TO VISIBILITY.

NYZ032-033-038>043-046>054-057>066-NYZ062>081-082-084-300800-
EAST


CITY           SKY/WX    TMP DP  RH WIND       PRES   REMARKS
ALBANY         PTCLDY    67  59  75 NW3       29.98S
GLENS FALLS    CLEAR     66  59  78 N5        29.99S
POUGHKEEPSIE   CLEAR     70  65  84 CALM      29.95R
NEWBURGH       CLEAR     70  66  88 CALM      29.98R
MONTGOMERY     FOG       69  68  96 CALM      29.96S VSB 1/4
WHITE PLAINS   CLOUDY    70  68  93 CALM      29.94S
ISLIP          CLEAR     72  70  93 SW5       29.93S
NEW YORK CITY  CLOUDY    78  70  76 S3        29.93R
CENTRAL PARK   CLOUDY    76  70  82 CALM      29.96S
$$

NYZ005>009-017-018-044>046-055-056-300800-
CENTRAL


CITY           SKY/WX    TMP DP  RH WIND       PRES   REMARKS
FULTON         CLEAR     64  56  75 CALM      30.01S
SYRACUSE       PTCLDY    62  58  86 CALM      30.00S
ROME           CLEAR     62  58  86 CALM      30.02R
ELMIRA         CLOUDY    66  58  75 SW3       30.00S
BINGHAMTON     CLOUDY    65  54  67 NE6       30.02S
MONTICELLO     CLEAR     64  63  94 CALM      30.02S
$$

NYZ026>034-041>043-087-300800-
NORTH


CITY           SKY/WX    TMP DP  RH WIND       PRES   REMARKS
WATERTOWN      CLEAR     57  53  86 E3        30.03S
FORT DRUM      NOT AVBL
MASSENA        MOCLDY    59  54  83 S5        30.04S
SARANAC LAKE   PTCLDY    46  44  93 CALM      30.05S
PLATTSBURGH    CLEAR     62  57  83 W5        30.01S
$$

NYZ001>004-010>016-019>021-085-300800-
WEST


CITY           SKY/WX    TMP DP  RH WIND       PRES   REMARKS
BUFFALO        MOCLDY    69  59  70 E10       29.99F
DUNKIRK        CLOUDY    67  61  81 NE6       29.98R
JAMESTOWN      MOCLDY    66  57  72 E5        30.01F
WELLSVILLE     CLOUDY    65  59  81 SE3       30.06S
ROCHESTER      CLOUDY    71  60  68 E14G20    30.02R
PENN YAN       CLOUDY    65  58  78 N3        30.02S
$$

             KEY
       WCI = WIND CHILL INDEX
       VSB = VISIBILITY
       HX  = HEAT INDEX
$$




USA.gov is the U.S. government's official web portal to all federal, state and local government web resources and services.